Back to catalog

OPS 4682 DEB

AlivePO
NORAD 38367·DEBRIS·🇺🇸 United States

Launched Apr 3, 1965 from Vandenberg Space Force Base

Loading…

Next Passes (next 24 hours)

TLE

FreshSource: Space-Track

Epoch: Sep 14, 2026, 06:51 UTC

1 38367U 65027BU  26257.28589916 -.00000096  00000-0 -35687-3 0  9996
2 38367  90.2512  12.7781 0033572 257.1313 102.6056 12.96736340320428

Track OPS 4682 DEB in real time with AllMySat

Download on the App Store